Location: Cruquius
(52.3348°N, 4.6319°E)
Time: 04:22:41
(UTC+00:00)

BREEZE-M DEB (TANK) - Pass Details

Date: 12 May 2021
Orbit: 284 x 18731 km, 52.5° (Epoch: 13 June)

Event Time Altitude Azimuth Distance (km) Brightness Sun altitude
Rises 19:36:56 0° 236° (WSW) 11,196 9.7 -2.2°
Reaches altitude 10° 19:48:20 10° 236° (WSW) 7,290 8.8 -3.6°
Maximum altitude 20:03:45 64° 161° (SSE) 1,198 4.3 -5.5°
Drops below altitude 10° 20:07:34 10° 79° (E) 1,939 5.3 -5.9°
Sets 20:08:52 0° 75° (ENE) 2,531 5.9 -6.1°
